Time,TemperatureF,DewpointF,PressureIn,WindDirection,WindDirectionDegrees,WindSpeedMPH,WindSpeedGustMPH,Humidity,HourlyPrecipIn,Conditions,Clouds,dailyrainin,SoftwareType,DateUTC
2013-01-04 00:02:00,15.1,10.0,29.98,SSW,201,0.0,0.0,80,0.00,,,0.00,Wunderground v.1.15,2013-01-04 05:02:00,
2013-01-04 00:07:00,14.8,10.0,29.98,SSW,201,0.0,1.0,81,0.00,,,0.00,Wunderground v.1.15,2013-01-04 05:07:00,
2013-01-04 00:11:00,14.5,9.7,29.98,SSW,200,0.0,0.0,81,0.00,,,0.00,Wunderground v.1.15,2013-01-04 05:11:00,
2013-01-04 00:12:00,14.4,9.9,29.98,SSW,201,0.0,1.0,82,0.00,,,0.00,Wunderground v.1.15,2013-01-04 05:12:00,
2013-01-04 00:18:00,14.0,9.5,29.98,SSW,200,0.0,1.0,82,0.00,,,0.00,Wunderground v.1.15,2013-01-04 05:18:00,
2013-01-04 00:23:00,13.6,9.1,29.97,SSE,159,0.0,0.0,82,0.00,,,0.00,Wunderground v.1.15,2013-01-04 05:23:00,
2013-01-04 00:29:00,13.3,8.8,29.97,WSW,251,0.0,0.0,82,0.00,,,0.00,Wunderground v.1.15,2013-01-04 05:29:00,
2013-01-04 00:36:00,13.0,8.5,29.97,WSW,251,0.0,0.0,82,0.00,,,0.00,Wunderground v.1.15,2013-01-04 05:36:00,
2013-01-04 00:42:00,12.8,8.3,29.97,WSW,250,0.0,1.0,82,0.00,,,0.00,Wunderground v.1.15,2013-01-04 05:42:00,
2013-01-04 00:47:00,12.7,8.2,29.97,WSW,240,0.0,1.0,82,0.00,,,0.00,Wunderground v.1.15,2013-01-04 05:47:00,
2013-01-04 00:52:00,12.5,8.0,29.96,WSW,242,0.0,1.0,82,0.00,,,0.00,Wunderground v.1.15,2013-01-04 05:52:00,
2013-01-04 00:58:00,12.3,8.1,29.96,SW,219,0.0,2.0,83,0.00,,,0.00,Wunderground v.1.15,2013-01-04 05:58:00,
2013-01-04 01:03:00,12.4,8.2,29.96,West,261,1.0,1.0,83,0.00,,,0.00,Wunderground v.1.15,2013-01-04 06:03:00,
2013-01-04 01:09:00,12.5,8.6,29.96,NW,310,0.0,1.0,84,0.00,,,0.00,Wunderground v.1.15,2013-01-04 06:09:00,
2013-01-04 01:14:00,12.8,8.9,29.96,NW,310,0.0,0.0,84,0.00,,,0.00,Wunderground v.1.15,2013-01-04 06:14:00,
2013-01-04 01:21:00,13.2,9.3,29.96,NW,310,0.0,0.0,84,0.00,,,0.00,Wunderground v.1.15,2013-01-04 06:21:00,
2013-01-04 01:27:00,13.3,9.1,29.96,NW,310,0.0,0.0,83,0.00,,,0.00,Wunderground v.1.15,2013-01-04 06:27:00,
2013-01-04 01:32:00,13.5,9.3,29.96,West,265,0.0,0.0,83,0.00,,,0.00,Wunderground v.1.15,2013-01-04 06:32:00,
2013-01-04 01:38:00,13.6,9.4,29.96,West,265,0.0,0.0,83,0.00,,,0.00,Wunderground v.1.15,2013-01-04 06:38:00,
2013-01-04 01:44:00,13.5,9.3,29.96,West,265,0.0,0.0,83,0.00,,,0.00,Wunderground v.1.15,2013-01-04 06:44:00,
2013-01-04 01:49:00,13.3,8.8,29.96,West,265,0.0,0.0,82,0.00,,,0.00,Wunderground v.1.15,2013-01-04 06:49:00,
2013-01-04 01:56:00,13.0,8.8,29.96,West,265,0.0,0.0,83,0.00,,,0.00,Wunderground v.1.15,2013-01-04 06:56:00,
2013-01-04 02:01:00,12.7,8.5,29.97,West,265,0.0,0.0,83,0.00,,,0.00,Wunderground v.1.15,2013-01-04 07:01:00,
2013-01-04 02:06:00,12.5,8.6,29.97,West,265,0.0,0.0,84,0.00,,,0.00,Wunderground v.1.15,2013-01-04 07:06:00,
2013-01-04 02:12:00,12.3,8.4,29.96,West,265,0.0,1.0,84,0.00,,,0.00,Wunderground v.1.15,2013-01-04 07:12:00,
2013-01-04 02:17:00,12.2,8.6,29.96,NW,308,1.0,2.0,85,0.00,,,0.00,Wunderground v.1.15,2013-01-04 07:17:00,
2013-01-04 02:23:00,12.2,8.6,29.96,WSW,252,1.0,1.0,85,0.00,,,0.00,Wunderground v.1.15,2013-01-04 07:23:00,
2013-01-04 02:29:00,12.1,8.5,29.96,WNW,299,1.0,2.0,85,0.00,,,0.00,Wunderground v.1.15,2013-01-04 07:29:00,
2013-01-04 02:36:00,12.0,8.4,29.96,WNW,299,1.0,2.0,85,0.00,,,0.00,Wunderground v.1.15,2013-01-04 07:36:00,
2013-01-04 02:41:00,12.0,8.4,29.96,NW,325,1.0,1.0,85,0.00,,,0.00,Wunderground v.1.15,2013-01-04 07:41:00,
2013-01-04 02:46:00,12.0,8.4,29.96,West,271,1.0,1.0,85,0.00,,,0.00,Wunderground v.1.15,2013-01-04 07:46:00,
2013-01-04 02:51:00,12.2,8.6,29.96,WNW,283,1.0,2.0,85,0.00,,,0.00,Wunderground v.1.15,2013-01-04 07:51:00,
2013-01-04 02:56:00,12.7,9.3,29.96,NW,318,1.0,2.0,86,0.00,,,0.00,Wunderground v.1.15,2013-01-04 07:56:00,
2013-01-04 03:02:00,13.3,9.9,29.96,NW,309,1.0,1.0,86,0.00,,,0.00,Wunderground v.1.15,2013-01-04 08:02:00,
2013-01-04 03:08:00,13.9,10.2,29.95,WSW,244,1.0,1.0,85,0.00,,,0.00,Wunderground v.1.15,2013-01-04 08:08:00,
2013-01-04 03:13:00,14.3,10.6,29.95,West,272,1.0,1.0,85,0.00,,,0.00,Wunderground v.1.15,2013-01-04 08:13:00,
2013-01-04 03:18:00,14.8,11.1,29.95,WNW,291,1.0,3.0,85,0.00,,,0.00,Wunderground v.1.15,2013-01-04 08:18:00,
2013-01-04 03:23:00,15.0,11.3,29.95,WNW,291,1.0,2.0,85,0.00,,,0.00,Wunderground v.1.15,2013-01-04 08:23:00,
2013-01-04 03:28:00,15.0,11.0,29.95,WNW,299,1.0,2.0,84,0.00,,,0.00,Wunderground v.1.15,2013-01-04 08:28:00,
2013-01-04 03:34:00,15.2,11.2,29.95,WNW,297,2.0,2.0,84,0.00,,,0.00,Wunderground v.1.15,2013-01-04 08:34:00,
2013-01-04 03:39:00,15.3,11.3,29.95,WNW,300,2.0,2.0,84,0.00,,,0.00,Wunderground v.1.15,2013-01-04 08:39:00,
2013-01-04 03:44:00,15.2,11.0,29.95,WNW,291,2.0,2.0,83,0.00,,,0.00,Wunderground v.1.15,2013-01-04 08:44:00,
2013-01-04 03:49:00,15.1,11.1,29.95,NW,325,1.0,2.0,84,0.00,,,0.00,Wunderground v.1.15,2013-01-04 08:49:00,
2013-01-04 03:56:00,15.2,11.2,29.95,WNW,291,1.0,2.0,84,0.00,,,0.00,Wunderground v.1.15,2013-01-04 08:56:00,
2013-01-04 04:01:00,15.3,11.3,29.95,NW,305,1.0,1.0,84,0.00,,,0.00,Wunderground v.1.15,2013-01-04 09:01:00,
2013-01-04 04:07:00,16.2,12.5,29.95,NW,317,1.0,3.0,85,0.00,,,0.00,Wunderground v.1.15,2013-01-04 09:07:00,
2013-01-04 04:12:00,16.8,12.8,29.95,NW,315,1.0,1.0,84,0.00,,,0.00,Wunderground v.1.15,2013-01-04 09:12:00,
2013-01-04 04:18:00,16.6,12.1,29.95,NW,310,1.0,2.0,82,0.00,,,0.00,Wunderground v.1.15,2013-01-04 09:18:00,
2013-01-04 04:23:00,16.4,12.1,29.95,NW,310,2.0,3.0,83,0.00,,,0.00,Wunderground v.1.15,2013-01-04 09:23:00,
2013-01-04 04:28:00,16.4,12.4,29.95,WNW,302,2.0,3.0,84,0.00,,,0.00,Wunderground v.1.15,2013-01-04 09:28:00,
2013-01-04 04:34:00,16.7,12.7,29.95,WNW,302,2.0,2.0,84,0.00,,,0.00,Wunderground v.1.15,2013-01-04 09:34:00,
2013-01-04 04:41:00,17.0,13.0,29.95,WNW,300,2.0,2.0,84,0.00,,,0.00,Wunderground v.1.15,2013-01-04 09:41:00,
2013-01-04 04:46:00,17.1,12.8,29.95,West,275,2.0,2.0,83,0.00,,,0.00,Wunderground v.1.15,2013-01-04 09:46:00,
2013-01-04 04:51:00,16.9,12.6,29.95,NW,310,1.0,2.0,83,0.00,,,0.00,Wunderground v.1.15,2013-01-04 09:51:00,
2013-01-04 04:57:00,16.8,12.5,29.95,WNW,290,2.0,2.0,83,0.00,,,0.00,Wunderground v.1.15,2013-01-04 09:57:00,
2013-01-04 05:02:00,16.6,12.3,29.95,West,279,2.0,3.0,83,0.00,,,0.00,Wunderground v.1.15,2013-01-04 10:02:00,
2013-01-04 05:08:00,16.5,12.5,29.95,West,273,2.0,3.0,84,0.00,,,0.00,Wunderground v.1.15,2013-01-04 10:08:00,
2013-01-04 05:14:00,16.8,13.1,29.95,West,271,2.0,2.0,85,0.00,,,0.00,Wunderground v.1.15,2013-01-04 10:14:00,
2013-01-04 05:21:00,17.6,13.9,29.95,WNW,299,2.0,2.0,85,0.00,,,0.00,Wunderground v.1.15,2013-01-04 10:21:00,
2013-01-04 05:26:00,17.9,14.2,29.95,NW,321,1.0,5.0,85,0.00,,,0.00,Wunderground v.1.15,2013-01-04 10:26:00,
2013-01-04 05:31:00,18.6,14.8,29.95,WNW,284,1.0,1.0,85,0.00,,,0.00,Wunderground v.1.15,2013-01-04 10:31:00,
2013-01-04 05:37:00,19.3,15.3,29.95,WNW,287,2.0,4.0,84,0.00,,,0.00,Wunderground v.1.15,2013-01-04 10:37:00,
2013-01-04 05:42:00,19.6,15.3,29.95,West,280,2.0,2.0,83,0.00,,,0.00,Wunderground v.1.15,2013-01-04 10:42:00,
2013-01-04 05:48:00,19.7,15.1,29.96,WNW,296,2.0,5.0,82,0.00,,,0.00,Wunderground v.1.15,2013-01-04 10:48:00,
2013-01-04 05:53:00,19.5,14.9,29.95,West,271,2.0,2.0,82,0.00,,,0.00,Wunderground v.1.15,2013-01-04 10:53:00,
2013-01-04 05:58:00,19.1,14.2,29.96,WNW,298,2.0,2.0,81,0.00,,,0.00,Wunderground v.1.15,2013-01-04 10:58:00,
2013-01-04 06:04:00,18.5,13.6,29.96,WNW,296,1.0,2.0,81,0.00,,,0.00,Wunderground v.1.15,2013-01-04 11:04:00,
2013-01-04 06:09:00,17.8,13.0,29.96,WSW,250,1.0,2.0,81,0.00,,,0.00,Wunderground v.1.15,2013-01-04 11:09:00,
2013-01-04 06:16:00,16.9,12.4,29.95,WNW,292,1.0,2.0,82,0.00,,,0.00,Wunderground v.1.15,2013-01-04 11:16:00,
2013-01-04 06:21:00,16.6,12.6,29.95,WNW,282,1.0,1.0,84,0.00,,,0.00,Wunderground v.1.15,2013-01-04 11:21:00,
2013-01-04 06:27:00,16.6,12.9,29.96,WSW,254,1.0,2.0,85,0.00,,,0.00,Wunderground v.1.15,2013-01-04 11:27:00,
2013-01-04 06:32:00,16.5,12.8,29.96,West,259,1.0,1.0,85,0.00,,,0.00,Wunderground v.1.15,2013-01-04 11:32:00,
2013-01-04 06:38:00,16.6,12.9,29.96,West,271,1.0,2.0,85,0.00,,,0.00,Wunderground v.1.15,2013-01-04 11:38:00,
2013-01-04 06:44:00,16.8,13.3,29.96,West,271,1.0,1.0,86,0.00,,,0.00,Wunderground v.1.15,2013-01-04 11:44:00,
2013-01-04 06:51:00,17.2,13.7,29.96,West,268,1.0,2.0,86,0.00,,,0.00,Wunderground v.1.15,2013-01-04 11:51:00,
2013-01-04 06:56:00,17.5,14.0,29.96,WNW,286,2.0,3.0,86,0.00,,,0.00,Wunderground v.1.15,2013-01-04 11:56:00,
2013-01-04 07:02:00,18.0,14.5,29.96,WSW,257,2.0,3.0,86,0.00,,,0.00,Wunderground v.1.15,2013-01-04 12:02:00,
2013-01-04 07:07:00,18.2,14.7,29.96,WNW,286,2.0,3.0,86,0.00,,,0.00,Wunderground v.1.15,2013-01-04 12:07:00,
2013-01-04 07:13:00,18.4,14.6,29.97,SW,221,2.0,2.0,85,0.00,,,0.00,Wunderground v.1.15,2013-01-04 12:13:00,
2013-01-04 07:19:00,18.4,14.6,29.97,West,275,1.0,3.0,85,0.00,,,0.00,Wunderground v.1.15,2013-01-04 12:19:00,
2013-01-04 07:24:00,18.3,14.5,29.97,WNW,286,1.0,3.0,85,0.00,,,0.00,Wunderground v.1.15,2013-01-04 12:24:00,
2013-01-04 07:29:00,18.2,14.2,29.97,West,268,2.0,3.0,84,0.00,,,0.00,Wunderground v.1.15,2013-01-04 12:29:00,
2013-01-04 07:36:00,17.8,14.1,29.97,WSW,254,2.0,2.0,85,0.00,,,0.00,Wunderground v.1.15,2013-01-04 12:36:00,
2013-01-04 07:42:00,18.0,14.5,29.97,West,280,2.0,3.0,86,0.00,,,0.00,Wunderground v.1.15,2013-01-04 12:42:00,
2013-01-04 07:48:00,18.3,14.8,29.97,WNW,284,2.0,3.0,86,0.00,,,0.00,Wunderground v.1.15,2013-01-04 12:48:00,
2013-01-04 07:53:00,18.7,15.2,29.97,West,265,2.0,5.0,86,0.00,,,0.00,Wunderground v.1.15,2013-01-04 12:53:00,
2013-01-04 07:59:00,19.5,16.0,29.98,West,269,2.0,5.0,86,0.00,,,0.00,Wunderground v.1.15,2013-01-04 12:59:00,
2013-01-04 08:04:00,20.4,16.9,29.98,West,265,3.0,3.0,86,0.00,,,0.00,Wunderground v.1.15,2013-01-04 13:04:00,
2013-01-04 08:11:00,21.6,17.5,29.98,WNW,290,2.0,2.0,84,0.00,,,0.00,Wunderground v.1.15,2013-01-04 13:11:00,
2013-01-04 08:16:00,22.0,17.6,29.98,SW,230,2.0,2.0,83,0.00,,,0.00,Wunderground v.1.15,2013-01-04 13:16:00,
2013-01-04 08:21:00,22.6,17.9,29.98,West,281,1.0,1.0,82,0.00,,,0.00,Wunderground v.1.15,2013-01-04 13:21:00,
2013-01-04 08:26:00,23.3,18.3,29.98,West,268,2.0,2.0,81,0.00,,,0.00,Wunderground v.1.15,2013-01-04 13:26:00,
2013-01-04 08:31:00,24.1,18.8,29.98,WNW,300,2.0,2.0,80,0.00,,,0.00,Wunderground v.1.15,2013-01-04 13:31:00,
2013-01-04 08:37:00,24.9,19.3,29.97,SW,229,3.0,6.0,79,0.00,,,0.00,Wunderground v.1.15,2013-01-04 13:37:00,
2013-01-04 08:43:00,25.6,19.4,29.97,West,260,3.0,3.0,77,0.00,,,0.00,Wunderground v.1.15,2013-01-04 13:43:00,
2013-01-04 08:48:00,26.1,19.9,29.97,NW,323,3.0,4.0,77,0.00,,,0.00,Wunderground v.1.15,2013-01-04 13:48:00,
2013-01-04 08:54:00,26.5,20.0,29.97,WNW,290,3.0,3.0,76,0.00,,,0.00,Wunderground v.1.15,2013-01-04 13:54:00,
2013-01-04 08:59:00,27.0,20.1,29.97,SW,235,2.0,5.0,75,0.00,,,0.00,Wunderground v.1.15,2013-01-04 13:59:00,
2013-01-04 09:04:00,27.3,20.1,29.97,West,268,3.0,6.0,74,0.00,,,0.00,Wunderground v.1.15,2013-01-04 14:04:00,
2013-01-04 09:09:00,27.7,20.5,29.97,SW,234,4.0,6.0,74,0.00,,,0.00,Wunderground v.1.15,2013-01-04 14:09:00,
2013-01-04 09:14:00,28.3,20.7,29.97,SW,223,3.0,5.0,73,0.00,,,0.00,Wunderground v.1.15,2013-01-04 14:14:00,
2013-01-04 09:21:00,29.0,21.1,29.97,West,267,3.0,3.0,72,0.00,,,0.00,Wunderground v.1.15,2013-01-04 14:21:00,
2013-01-04 09:27:00,29.7,21.4,29.96,SW,217,4.0,7.0,71,0.00,,,0.00,Wunderground v.1.15,2013-01-04 14:27:00,
2013-01-04 09:33:00,30.3,21.7,29.96,WSW,246,4.0,7.0,70,0.00,,,0.00,Wunderground v.1.15,2013-01-04 14:33:00,
2013-01-04 09:39:00,30.7,21.4,29.95,WSW,238,4.0,10.0,68,0.00,,,0.00,Wunderground v.1.15,2013-01-04 14:39:00,
2013-01-04 09:46:00,31.0,21.7,29.95,SW,223,5.0,6.0,68,0.00,,,0.00,Wunderground v.1.15,2013-01-04 14:46:00,
2013-01-04 09:52:00,31.2,21.5,29.96,SSW,211,4.0,4.0,67,0.00,,,0.00,Wunderground v.1.15,2013-01-04 14:52:00,
2013-01-04 09:58:00,31.4,21.3,29.95,West,264,5.0,5.0,66,0.00,,,0.00,Wunderground v.1.15,2013-01-04 14:58:00,
2013-01-04 10:04:00,31.8,21.7,29.95,West,275,4.0,5.0,66,0.00,,,0.00,Wunderground v.1.15,2013-01-04 15:04:00,
2013-01-04 10:11:00,32.3,21.8,29.95,WSW,257,6.0,6.0,65,0.00,,,0.00,Wunderground v.1.15,2013-01-04 15:11:00,
2013-01-04 10:17:00,32.8,22.7,29.94,WSW,249,5.0,7.0,66,0.00,,,0.00,Wunderground v.1.15,2013-01-04 15:17:00,
2013-01-04 10:22:00,33.2,22.3,29.94,West,262,5.0,6.0,64,0.00,,,0.00,Wunderground v.1.15,2013-01-04 15:22:00,
2013-01-04 10:27:00,33.5,22.2,29.94,SW,227,5.0,9.0,63,0.00,,,0.00,Wunderground v.1.15,2013-01-04 15:27:00,
2013-01-04 10:33:00,34.2,22.9,29.94,WSW,253,5.0,13.0,63,0.00,,,0.00,Wunderground v.1.15,2013-01-04 15:33:00,
2013-01-04 10:38:00,34.5,22.8,29.94,WNW,285,4.0,13.0,62,0.00,,,0.00,Wunderground v.1.15,2013-01-04 15:38:00,
2013-01-04 10:43:00,34.4,21.9,29.93,West,272,5.0,9.0,60,0.00,,,0.00,Wunderground v.1.15,2013-01-04 15:43:00,
2013-01-04 10:48:00,34.4,21.9,29.93,WSW,238,6.0,9.0,60,0.00,,,0.00,Wunderground v.1.15,2013-01-04 15:48:00,
2013-01-04 10:54:00,34.4,21.9,29.92,WNW,294,5.0,8.0,60,0.00,,,0.00,Wunderground v.1.15,2013-01-04 15:54:00,
2013-01-04 10:59:00,34.7,22.6,29.92,WNW,290,5.0,8.0,61,0.00,,,0.00,Wunderground v.1.15,2013-01-04 15:59:00,
2013-01-04 11:06:00,34.7,22.2,29.92,WNW,295,5.0,10.0,60,0.00,,,0.00,Wunderground v.1.15,2013-01-04 16:06:00,
2013-01-04 11:12:00,34.4,21.9,29.91,West,279,6.0,13.0,60,0.00,,,0.00,Wunderground v.1.15,2013-01-04 16:12:00,
2013-01-04 11:18:00,34.0,22.0,29.91,SW,226,8.0,13.0,61,0.00,,,0.00,Wunderground v.1.15,2013-01-04 16:18:00,
2013-01-04 11:24:00,33.9,21.9,29.90,West,266,7.0,15.0,61,0.00,,,0.00,Wunderground v.1.15,2013-01-04 16:24:00,
2013-01-04 11:31:00,34.4,22.3,29.89,WSW,256,7.0,12.0,61,0.00,,,0.00,Wunderground v.1.15,2013-01-04 16:31:00,
2013-01-04 11:37:00,34.7,22.2,29.90,WSW,249,7.0,12.0,60,0.00,,,0.00,Wunderground v.1.15,2013-01-04 16:37:00,
2013-01-04 11:42:00,35.0,22.9,29.89,WSW,242,7.0,10.0,61,0.00,,,0.00,Wunderground v.1.15,2013-01-04 16:42:00,
2013-01-04 11:48:00,35.3,22.8,29.88,WSW,257,7.0,13.0,60,0.00,,,0.00,Wunderground v.1.15,2013-01-04 16:48:00,
2013-01-04 11:54:00,35.4,22.5,29.88,WNW,286,7.0,14.0,59,0.00,,,0.00,Wunderground v.1.15,2013-01-04 16:54:00,
2013-01-04 12:01:00,35.6,22.7,29.87,WNW,298,7.0,7.0,59,0.00,,,0.00,Wunderground v.1.15,2013-01-04 17:01:00,
2013-01-04 12:06:00,36.0,23.0,29.87,SSW,210,5.0,7.0,59,0.00,,,0.00,Wunderground v.1.15,2013-01-04 17:06:00,
2013-01-04 12:12:00,36.5,23.5,29.87,West,279,5.0,6.0,59,0.00,,,0.00,Wunderground v.1.15,2013-01-04 17:12:00,
2013-01-04 12:18:00,36.5,22.7,29.87,West,261,7.0,13.0,57,0.00,,,0.00,Wunderground v.1.15,2013-01-04 17:18:00,
2013-01-04 12:23:00,36.5,23.1,29.86,West,263,8.0,8.0,58,0.00,,,0.00,Wunderground v.1.15,2013-01-04 17:23:00,
2013-01-04 12:28:00,36.9,23.9,29.85,SSW,212,7.0,10.0,59,0.00,,,0.00,Wunderground v.1.15,2013-01-04 17:28:00,
2013-01-04 12:33:00,37.4,24.0,29.85,West,279,5.0,8.0,58,0.00,,,0.00,Wunderground v.1.15,2013-01-04 17:33:00,
2013-01-04 12:39:00,37.9,24.0,29.85,SW,214,5.0,8.0,57,0.00,,,0.00,Wunderground v.1.15,2013-01-04 17:39:00,
2013-01-04 12:44:00,38.2,23.9,29.85,SW,223,4.0,6.0,56,0.00,,,0.00,Wunderground v.1.15,2013-01-04 17:44:00,
2013-01-04 12:49:00,38.4,24.1,29.84,SW,223,4.0,6.0,56,0.00,,,0.00,Wunderground v.1.15,2013-01-04 17:49:00,
2013-01-04 12:56:00,38.7,24.8,29.83,SW,234,4.0,6.0,57,0.00,,,0.00,Wunderground v.1.15,2013-01-04 17:56:00,
2013-01-04 13:01:00,38.5,24.1,29.82,WNW,295,5.0,7.0,56,0.00,,,0.00,Wunderground v.1.15,2013-01-04 18:01:00,
2013-01-04 13:06:00,37.9,24.0,29.82,NNW,329,7.0,7.0,57,0.00,,,0.00,Wunderground v.1.15,2013-01-04 18:06:00,
2013-01-04 13:12:00,37.6,24.1,29.82,SSW,212,7.0,11.0,58,0.00,,,0.00,Wunderground v.1.15,2013-01-04 18:12:00,
2013-01-04 13:18:00,37.6,23.7,29.82,West,278,6.0,13.0,57,0.00,,,0.00,Wunderground v.1.15,2013-01-04 18:18:00,
2013-01-04 13:24:00,37.9,24.4,29.82,WNW,294,5.0,6.0,58,0.00,,,0.00,Wunderground v.1.15,2013-01-04 18:24:00,
2013-01-04 13:29:00,37.7,24.2,29.82,NW,321,6.0,10.0,58,0.00,,,0.00,Wunderground v.1.15,2013-01-04 18:29:00,
2013-01-04 13:34:00,37.4,24.0,29.82,West,265,6.0,8.0,58,0.00,,,0.00,Wunderground v.1.15,2013-01-04 18:34:00,
2013-01-04 13:41:00,36.9,23.5,29.82,SSW,210,5.0,6.0,58,0.00,,,0.00,Wunderground v.1.15,2013-01-04 18:41:00,
2013-01-04 13:46:00,36.6,23.6,29.82,NW,311,5.0,9.0,59,0.00,,,0.00,Wunderground v.1.15,2013-01-04 18:46:00,
2013-01-04 13:51:00,36.5,23.9,29.82,NW,306,6.0,6.0,60,0.00,,,0.00,Wunderground v.1.15,2013-01-04 18:51:00,
2013-01-04 13:57:00,36.4,23.8,29.82,West,271,5.0,10.0,60,0.00,,,0.00,Wunderground v.1.15,2013-01-04 18:57:00,
2013-01-04 14:03:00,36.1,23.5,29.82,ENE,67,6.0,9.0,60,0.00,,,0.00,Wunderground v.1.15,2013-01-04 19:03:00,
2013-01-04 14:08:00,36.0,23.8,29.82,WSW,257,5.0,9.0,61,0.00,,,0.00,Wunderground v.1.15,2013-01-04 19:08:00,
2013-01-04 14:13:00,35.9,24.1,29.82,WNW,282,4.0,6.0,62,0.00,,,0.00,Wunderground v.1.15,2013-01-04 19:13:00,
2013-01-04 14:19:00,35.6,24.2,29.82,SW,234,4.0,6.0,63,0.00,,,0.00,Wunderground v.1.15,2013-01-04 19:19:00,
2013-01-04 14:24:00,35.4,23.7,29.82,SW,227,5.0,9.0,62,0.00,,,0.00,Wunderground v.1.15,2013-01-04 19:24:00,
2013-01-04 14:29:00,35.2,23.9,29.82,West,276,5.0,9.0,63,0.00,,,0.00,Wunderground v.1.15,2013-01-04 19:29:00,
2013-01-04 14:34:00,35.1,24.1,29.82,WSW,246,6.0,10.0,64,0.00,,,0.00,Wunderground v.1.15,2013-01-04 19:34:00,
2013-01-04 14:39:00,35.1,24.5,29.82,SSW,199,5.0,10.0,65,0.00,,,0.00,Wunderground v.1.15,2013-01-04 19:39:00,
2013-01-04 14:46:00,35.0,24.0,29.82,SW,223,4.0,9.0,64,0.00,,,0.00,Wunderground v.1.15,2013-01-04 19:46:00,
2013-01-04 14:52:00,35.0,24.0,29.82,SW,224,5.0,7.0,64,0.00,,,0.00,Wunderground v.1.15,2013-01-04 19:52:00,
2013-01-04 14:57:00,35.1,24.5,29.82,WSW,238,5.0,7.0,65,0.00,,,0.00,Wunderground v.1.15,2013-01-04 19:57:00,
2013-01-04 15:03:00,34.9,23.9,29.82,West,269,5.0,8.0,64,0.00,,,0.00,Wunderground v.1.15,2013-01-04 20:03:00,
2013-01-04 15:09:00,34.9,24.3,29.82,West,266,5.0,8.0,65,0.00,,,0.00,Wunderground v.1.15,2013-01-04 20:09:00,
2013-01-04 15:16:00,34.8,24.2,29.82,WNW,290,4.0,13.0,65,0.00,,,0.00,Wunderground v.1.15,2013-01-04 20:16:00,
2013-01-04 15:22:00,34.7,24.1,29.82,West,280,4.0,4.0,65,0.00,,,0.00,Wunderground v.1.15,2013-01-04 20:22:00,
2013-01-04 15:27:00,34.7,23.8,29.82,WNW,294,4.0,4.0,64,0.00,,,0.00,Wunderground v.1.15,2013-01-04 20:27:00,
2013-01-04 15:33:00,34.7,24.1,29.82,West,273,3.0,6.0,65,0.00,,,0.00,Wunderground v.1.15,2013-01-04 20:33:00,
2013-01-04 15:39:00,34.6,24.4,29.82,West,259,3.0,6.0,66,0.00,,,0.00,Wunderground v.1.15,2013-01-04 20:39:00,
2013-01-04 15:46:00,34.4,24.2,29.82,WNW,299,2.0,3.0,66,0.00,,,0.00,Wunderground v.1.15,2013-01-04 20:46:00,
2013-01-04 15:51:00,34.4,24.2,29.82,SSW,194,2.0,5.0,66,0.00,,,0.00,Wunderground v.1.15,2013-01-04 20:51:00,
2013-01-04 15:57:00,34.4,24.2,29.82,WSW,250,2.0,5.0,66,0.00,,,0.00,Wunderground v.1.15,2013-01-04 20:57:00,
2013-01-04 16:02:00,34.4,23.8,29.82,West,270,2.0,4.0,65,0.00,,,0.00,Wunderground v.1.15,2013-01-04 21:02:00,
2013-01-04 16:08:00,34.4,24.2,29.82,West,279,3.0,4.0,66,0.00,,,0.00,Wunderground v.1.15,2013-01-04 21:08:00,
2013-01-04 16:13:00,34.4,24.2,29.82,West,263,4.0,5.0,66,0.00,,,0.00,Wunderground v.1.15,2013-01-04 21:13:00,
2013-01-04 16:19:00,34.3,24.5,29.82,NNW,331,3.0,6.0,67,0.00,,,0.00,Wunderground v.1.15,2013-01-04 21:19:00,
2013-01-04 16:26:00,34.2,24.0,29.82,West,263,2.0,5.0,66,0.00,,,0.00,Wunderground v.1.15,2013-01-04 21:26:00,
2013-01-04 16:31:00,34.2,23.7,29.82,WSW,254,3.0,3.0,65,0.00,,,0.00,Wunderground v.1.15,2013-01-04 21:31:00,
2013-01-04 16:36:00,34.2,23.7,29.82,NNE,19,3.0,3.0,65,0.00,,,0.00,Wunderground v.1.15,2013-01-04 21:36:00,
2013-01-04 16:42:00,34.2,23.3,29.82,NW,312,2.0,3.0,64,0.00,,,0.00,Wunderground v.1.15,2013-01-04 21:42:00,
2013-01-04 16:47:00,34.2,23.7,29.82,WSW,245,3.0,3.0,65,0.00,,,0.00,Wunderground v.1.15,2013-01-04 21:47:00,
2013-01-04 16:53:00,34.1,23.6,29.82,WSW,257,2.0,3.0,65,0.00,,,0.00,Wunderground v.1.15,2013-01-04 21:53:00,
2013-01-04 16:59:00,33.9,23.4,29.82,West,268,1.0,3.0,65,0.00,,,0.00,Wunderground v.1.15,2013-01-04 21:59:00,
2013-01-04 17:04:00,33.7,23.2,29.82,WSW,241,2.0,3.0,65,0.00,,,0.00,Wunderground v.1.15,2013-01-04 22:04:00,
2013-01-04 17:11:00,33.5,23.4,29.82,WSW,244,2.0,2.0,66,0.00,,,0.00,Wunderground v.1.15,2013-01-04 22:11:00,
2013-01-04 17:17:00,33.4,23.3,29.82,WSW,256,2.0,4.0,66,0.00,,,0.00,Wunderground v.1.15,2013-01-04 22:17:00,
2013-01-04 17:22:00,33.4,23.3,29.82,WSW,246,2.0,4.0,66,0.00,,,0.00,Wunderground v.1.15,2013-01-04 22:22:00,
2013-01-04 17:27:00,33.3,23.2,29.82,WSW,252,1.0,4.0,66,0.00,,,0.00,Wunderground v.1.15,2013-01-04 22:27:00,
2013-01-04 17:33:00,33.2,23.4,29.82,NW,304,2.0,6.0,67,0.00,,,0.00,Wunderground v.1.15,2013-01-04 22:33:00,
2013-01-04 17:38:00,33.2,23.4,29.82,WNW,292,2.0,6.0,67,0.00,,,0.00,Wunderground v.1.15,2013-01-04 22:38:00,
2013-01-04 17:43:00,33.3,23.5,29.82,WNW,286,3.0,5.0,67,0.00,,,0.00,Wunderground v.1.15,2013-01-04 22:43:00,
2013-01-04 17:49:00,33.4,23.3,29.82,SW,225,3.0,5.0,66,0.00,,,0.00,Wunderground v.1.15,2013-01-04 22:49:00,
2013-01-04 17:56:00,33.4,23.3,29.82,WSW,246,2.0,6.0,66,0.00,,,0.00,Wunderground v.1.15,2013-01-04 22:56:00,
2013-01-04 18:01:00,33.4,23.3,29.83,West,275,2.0,3.0,66,0.00,,,0.00,Wunderground v.1.15,2013-01-04 23:01:00,
2013-01-04 18:06:00,33.3,23.5,29.83,West,259,2.0,5.0,67,0.00,,,0.00,Wunderground v.1.15,2013-01-04 23:06:00,
2013-01-04 18:12:00,33.3,23.5,29.83,NW,317,2.0,2.0,67,0.00,,,0.00,Wunderground v.1.15,2013-01-04 23:12:00,
2013-01-04 18:18:00,33.2,23.4,29.83,WSW,238,2.0,3.0,67,0.00,,,0.00,Wunderground v.1.15,2013-01-04 23:18:00,
2013-01-04 18:23:00,33.1,23.0,29.83,WSW,257,1.0,2.0,66,0.00,,,0.00,Wunderground v.1.15,2013-01-04 23:23:00,
2013-01-04 18:28:00,33.1,23.0,29.83,WNW,303,1.0,5.0,66,0.00,,,0.00,Wunderground v.1.15,2013-01-04 23:28:00,
2013-01-04 18:34:00,33.1,23.0,29.83,West,277,2.0,2.0,66,0.00,,,0.00,Wunderground v.1.15,2013-01-04 23:34:00,
2013-01-04 18:41:00,33.0,23.2,29.83,West,259,1.0,1.0,67,0.00,,,0.00,Wunderground v.1.15,2013-01-04 23:41:00,
2013-01-04 18:46:00,32.9,23.5,29.83,WNW,284,2.0,4.0,68,0.00,,,0.00,Wunderground v.1.15,2013-01-04 23:46:00,
2013-01-04 18:51:00,32.9,23.1,29.84,SW,232,3.0,3.0,67,0.00,,,0.00,Wunderground v.1.15,2013-01-04 23:51:00,
2013-01-04 18:57:00,32.8,23.0,29.84,NW,307,3.0,5.0,67,0.00,,,0.00,Wunderground v.1.15,2013-01-04 23:57:00,
2013-01-04 19:02:00,32.6,22.8,29.84,WSW,244,2.0,5.0,67,0.00,,,0.00,Wunderground v.1.15,2013-01-05 00:02:00,
2013-01-04 19:08:00,32.2,22.8,29.84,West,260,1.0,5.0,68,0.00,,,0.00,Wunderground v.1.15,2013-01-05 00:08:00,
2013-01-04 19:13:00,31.9,22.5,29.84,WSW,248,1.0,1.0,68,0.00,,,0.00,Wunderground v.1.15,2013-01-05 00:13:00,
2013-01-04 19:18:00,31.6,22.2,29.85,SSW,213,2.0,2.0,68,0.00,,,0.00,Wunderground v.1.15,2013-01-05 00:18:00,
2013-01-04 19:24:00,31.4,22.1,29.85,SSW,213,1.0,2.0,68,0.00,,,0.00,Wunderground v.1.15,2013-01-05 00:24:00,
2013-01-04 19:29:00,31.1,22.1,29.85,WSW,257,1.0,2.0,69,0.00,,,0.00,Wunderground v.1.15,2013-01-05 00:29:00,
2013-01-04 19:34:00,30.7,22.1,29.84,West,273,1.0,2.0,70,0.00,,,0.00,Wunderground v.1.15,2013-01-05 00:34:00,
2013-01-04 19:39:00,30.3,22.0,29.84,WSW,245,1.0,2.0,71,0.00,,,0.00,Wunderground v.1.15,2013-01-05 00:39:00,
2013-01-04 19:46:00,29.8,21.5,29.84,SSW,198,1.0,4.0,71,0.00,,,0.00,Wunderground v.1.15,2013-01-05 00:46:00,
2013-01-04 19:52:00,29.7,21.8,29.84,WSW,246,2.0,2.0,72,0.00,,,0.00,Wunderground v.1.15,2013-01-05 00:52:00,
2013-01-04 19:57:00,29.5,21.6,29.84,WSW,246,1.0,2.0,72,0.00,,,0.00,Wunderground v.1.15,2013-01-05 00:57:00,
2013-01-04 20:03:00,29.4,21.5,29.84,WSW,256,1.0,1.0,72,0.00,,,0.00,Wunderground v.1.15,2013-01-05 01:03:00,
2013-01-04 20:09:00,29.5,21.6,29.84,WSW,240,1.0,3.0,72,0.00,,,0.00,Wunderground v.1.15,2013-01-05 01:09:00,
2013-01-04 20:16:00,29.6,21.3,29.84,NW,313,2.0,2.0,71,0.00,,,0.00,Wunderground v.1.15,2013-01-05 01:16:00,
2013-01-04 20:21:00,29.7,21.4,29.84,WSW,252,2.0,2.0,71,0.00,,,0.00,Wunderground v.1.15,2013-01-05 01:21:00,
2013-01-04 20:27:00,29.8,21.5,29.84,SW,227,3.0,8.0,71,0.00,,,0.00,Wunderground v.1.15,2013-01-05 01:27:00,
2013-01-04 20:33:00,29.9,21.3,29.84,West,279,4.0,4.0,70,0.00,,,0.00,Wunderground v.1.15,2013-01-05 01:33:00,
2013-01-04 20:38:00,30.0,21.7,29.84,West,261,3.0,5.0,71,0.00,,,0.00,Wunderground v.1.15,2013-01-05 01:38:00,
2013-01-04 20:43:00,29.9,21.3,29.84,WSW,254,3.0,3.0,70,0.00,,,0.00,Wunderground v.1.15,2013-01-05 01:43:00,
2013-01-04 20:49:00,29.7,21.4,29.85,West,265,2.0,3.0,71,0.00,,,0.00,Wunderground v.1.15,2013-01-05 01:49:00,
2013-01-04 20:54:00,29.7,21.1,29.84,WSW,250,2.0,3.0,70,0.00,,,0.00,Wunderground v.1.15,2013-01-05 01:54:00,
2013-01-04 21:01:00,29.5,20.9,29.84,WNW,301,2.0,2.0,70,0.00,,,0.00,Wunderground v.1.15,2013-01-05 02:01:00,
2013-01-04 21:06:00,29.6,21.0,29.84,WSW,243,3.0,5.0,70,0.00,,,0.00,Wunderground v.1.15,2013-01-05 02:06:00,
2013-01-04 21:12:00,29.4,21.2,29.84,SW,236,3.0,3.0,71,0.00,,,0.00,Wunderground v.1.15,2013-01-05 02:12:00,
2013-01-04 21:17:00,29.4,21.2,29.84,WNW,283,3.0,5.0,71,0.00,,,0.00,Wunderground v.1.15,2013-01-05 02:17:00,
2013-01-04 21:22:00,29.4,21.2,29.84,West,260,2.0,3.0,71,0.00,,,0.00,Wunderground v.1.15,2013-01-05 02:22:00,
2013-01-04 21:28:00,29.2,21.0,29.84,WSW,238,2.0,4.0,71,0.00,,,0.00,Wunderground v.1.15,2013-01-05 02:28:00,
2013-01-04 21:34:00,29.0,20.8,29.84,SW,229,3.0,4.0,71,0.00,,,0.00,Wunderground v.1.15,2013-01-05 02:34:00,
2013-01-04 21:39:00,28.8,20.9,29.84,West,259,2.0,4.0,72,0.00,,,0.00,Wunderground v.1.15,2013-01-05 02:39:00,
2013-01-04 21:46:00,28.8,20.6,29.85,SW,219,2.0,4.0,71,0.00,,,0.00,Wunderground v.1.15,2013-01-05 02:46:00,
2013-01-04 21:52:00,28.8,20.6,29.85,West,262,2.0,5.0,71,0.00,,,0.00,Wunderground v.1.15,2013-01-05 02:52:00,
2013-01-04 21:58:00,28.7,20.5,29.85,SW,224,1.0,5.0,71,0.00,,,0.00,Wunderground v.1.15,2013-01-05 02:58:00,
2013-01-04 22:03:00,28.5,20.6,29.85,West,281,1.0,3.0,72,0.00,,,0.00,Wunderground v.1.15,2013-01-05 03:03:00,
2013-01-04 22:09:00,28.5,20.6,29.85,West,281,2.0,3.0,72,0.00,,,0.00,Wunderground v.1.15,2013-01-05 03:09:00,
2013-01-04 22:14:00,28.4,20.5,29.85,West,271,2.0,2.0,72,0.00,,,0.00,Wunderground v.1.15,2013-01-05 03:14:00,
2013-01-04 22:19:00,28.3,20.4,29.85,SW,225,2.0,2.0,72,0.00,,,0.00,Wunderground v.1.15,2013-01-05 03:19:00,
2013-01-04 22:26:00,28.1,20.2,29.85,WSW,254,1.0,5.0,72,0.00,,,0.00,Wunderground v.1.15,2013-01-05 03:26:00,
2013-01-04 22:31:00,28.1,20.2,29.85,SW,231,2.0,3.0,72,0.00,,,0.00,Wunderground v.1.15,2013-01-05 03:31:00,
2013-01-04 22:37:00,28.0,20.1,29.85,West,277,1.0,3.0,72,0.00,,,0.00,Wunderground v.1.15,2013-01-05 03:37:00,
2013-01-04 22:42:00,28.3,20.4,29.85,WSW,240,1.0,1.0,72,0.00,,,0.00,Wunderground v.1.15,2013-01-05 03:42:00,
2013-01-04 22:47:00,28.3,20.4,29.85,SE,142,1.0,2.0,72,0.00,,,0.00,Wunderground v.1.15,2013-01-05 03:47:00,
2013-01-04 22:53:00,28.2,20.3,29.85,SE,141,0.0,0.0,72,0.00,,,0.00,Wunderground v.1.15,2013-01-05 03:53:00,
2013-01-04 22:58:00,28.1,20.2,29.85,WSW,244,0.0,0.0,72,0.00,,,0.00,Wunderground v.1.15,2013-01-05 03:58:00,
2013-01-04 23:04:00,27.8,19.9,29.85,WSW,237,1.0,2.0,72,0.00,,,0.00,Wunderground v.1.15,2013-01-05 04:04:00,
2013-01-04 23:09:00,27.5,20.0,29.85,SSE,168,1.0,2.0,73,0.00,,,0.00,Wunderground v.1.15,2013-01-05 04:09:00,
2013-01-04 23:16:00,27.4,19.9,29.85,South,169,0.0,1.0,73,0.00,,,0.00,Wunderground v.1.15,2013-01-05 04:16:00,
2013-01-04 23:21:00,27.3,19.8,29.85,SSW,192,0.0,1.0,73,0.00,,,0.00,Wunderground v.1.15,2013-01-05 04:21:00,
2013-01-04 23:26:00,27.0,19.8,29.85,SSW,192,1.0,1.0,74,0.00,,,0.00,Wunderground v.1.15,2013-01-05 04:26:00,
2013-01-04 23:32:00,26.7,19.5,29.85,South,171,1.0,1.0,74,0.00,,,0.00,Wunderground v.1.15,2013-01-05 04:32:00,
2013-01-04 23:37:00,26.4,19.5,29.85,South,176,1.0,1.0,75,0.00,,,0.00,Wunderground v.1.15,2013-01-05 04:37:00,
2013-01-04 23:42:00,26.2,19.4,29.85,South,176,1.0,1.0,75,0.00,,,0.00,Wunderground v.1.15,2013-01-05 04:42:00,
2013-01-04 23:47:00,26.0,19.2,29.85,South,176,0.0,1.0,75,0.00,,,0.00,Wunderground v.1.15,2013-01-05 04:47:00,
2013-01-04 23:52:00,25.7,19.2,29.85,South,188,0.0,1.0,76,0.00,,,0.00,Wunderground v.1.15,2013-01-05 04:52:00,
2013-01-04 23:58:00,25.3,19.1,29.85,South,188,0.0,1.0,77,0.00,,,0.00,Wunderground v.1.15,2013-01-05 04:58:00,